SCP
2 2 2 2 1 1 1 1 1 1 1 1 1 1 1 1 1 1 1 2 2 2 1 1 1 1 1 1 1 1 1 1 1 1 1 2 3 3 2 1 1 1 1
2 2 2 2 1 1 1 1 1 1 1 1 1 1 1 1 1 1 1 1 1 1 1 1 1 1 1 1 1 1 1 1 1 1 1 2 3 2 2 2 1 1 1
2 2 2 2 1 1 1 1 1 1 1 1 1 1 1 1 1 1 2 2 2 1 1 1 1 1 1 1 1 1 1 1 1 1 1 1 2 2 2 2 2 2 1
2 2 2 2 2 1 1 1 1 1 1 1 1 1 1 1 1 2 2 3 2 2 2 1 1 1 1 1 2 1 1 1 1 1 1 1 1 2 2 2 2 1 1
2 2 2 2 2 1 1 1 1 1 1 1 1 1 1 1 1 2 3 3 3 3 3 2 2 1 1 2 2 2 1 1 1 1 1 1 2 2 3 2 1 1 1
3 3 2 2 2 2 2 1 1 1 1 1 1 1 1 2 2 2 2 3 3 4 3 3 3 2 2 2 2 2 2 1 1 1 1 1 2 3 3 2 1 1 1
3 2 2 2 2 2 2 2 1 1 1 1 1 1 1 2 2 2 2 3 4 4 4 4 4 3 3 3 2 2 1 1 1 1 1 1 2 3 2 2 1 1 1
3 2 2 2 2 2 2 2 2 1 1 2 2 2 2 2 2 2 2 3 3 4 4 5 5 4 4 3 2 2 1 1 1 1 1 1 2 2 2 2 2 1 1
3 2 2 2 2 2 2 2 2 2 2 2 2 2 2 2 2 2 2 2 2 3 4 4 5 5 4 4 3 2 1 2 2 1 1 2 3 3 3 2 2 2 2
3 3 3 3 2 2 2 2 2 2 2 2 2 2 2 2 2 2 2 2 2 2 2 3 4 5 5 4 3 2 2 2 2 1 1 2 3 4 3 2 2 2 2
5 5 6 5 3 2 2 2 1 1 1 1 1 1 1 2 2 2 2 2 1 1 1 2 3 4 5 4 3 2 2 2 1 1 1 2 4 4 3 2 2 2 2
8 8 7 6 4 3 2 2 1 1 1 1 1 1 1 1 2 2 2 2 2 1 1 2 2 3 4 4 3 2 2 1 1 1 1 3 4 4 3 2 2 2 2
9 8 6 5 4 3 2 2 1 1 1 1 1 2 2 2 1 1 1 2 2 2 2 2 2 2 3 3 3 2 2 1 1 1 2 3 4 4 3 2 2 2 2
8 6 5 4 4 4 3 3 2 2 1 1 1 2 2 2 2 1 1 2 2 2 2 2 2 2 2 2 2 2 2 1 1 1 2 4 5 4 3 2 2 2 2
7 6 4 4 5 5 5 5 4 3 2 2 2 2 2 2 2 2 2 2 2 2 3 3 3 2 2 2 2 2 2 2 1 2 3 4 5 5 4 3 2 2 2
7 6 6 7 8 8 8 7 6 4 3 3 3 3 2 2 2 2 2 2 2 2 3 3 3 3 2 2 2 2 2 2 2 2 3 4 4 4 4 3 3 2 2
7 7 7 8 10 11 11 9 7 5 4 4 4 4 3 3 3 3 3 3 3 3 3 3 3 3 2 2 2 2 2 2 3 3 3 4 4 4 4 3 3 3 3
8 9 8 8 9 13 15 13 10 7 6 5 5 5 4 4 4 5 5 4 4 4 3 3 3 3 3 2 2 2 2 3 3 4 4 4 4 4 4 4 3 3 3
10 10 9 8 9 12 16 17 15 11 9 8 8 7 7 7 7 8 8 7 6 5 4 4 3 3 3 3 3 2 3 3 4 5 5 5 4 4 3 3 3 2 2
12 12 10 9 9 12 16 19 18 15 12 11 10 10 11 12 12 13 12 11 10 7 6 4 4 4 4 4 3 2 2 3 4 5 5 4 4 3 3 3 3 2 2
12 12 11 9 9 12 16 19 20 18 15 13 12 13 14 16 16 15 14 13 12 9 7 5 4 4 5 4 3 2 2 3 3 4 4 3 3 3 3 3 4 3 3
12 12 11 10 9 11 16 20 21 20 17 14 14 15 15 15 14 11 10 10 9 8 6 5 5 5 4 4 4 3 3 4 4 3 3 3 3 3 4 5 5 5 4
12 11 11 10 10 11 16 20 22 21 18 14 14 15 15 14 11 7 5 5 5 5 5 5 5 5 4 4 4 5 5 6 6 5 4 4 4 5 5 6 6 6 6
11 10 10 11 11 12 16 20 22 20 17 15 15 16 15 13 10 6 4 4 4 4 4 5 5 5 5 5 6 7 7 7 7 6 5 4 5 5 5 6 6 6 6
10 10 11 12 13 14 17 21 23 20 17 16 16 16 15 13 8 5 4 4 5 4 5 5 5 5 5 6 6 7 7 7 6 6 5 4 4 4 4 5 5 5 5
11 11 13 14 15 15 17 21 23 21 18 17 16 16 15 11 7 4 4 4 5 5 5 5 5 5 5 5 6 6 7 7 6 6 6 4 3 3 3 4 4 4 3
Wind_Speed
14 15 15 13 11 10 9 8 8 8 8 8 8 8 8 9 9 9 9 9 9 9 9 9 8 9 9 9 9 9 10 10 9 8 9 9 10 10 9 9 8 8 12
16 15 15 13 11 10 8 8 7 8 8 8 8 8 8 8 7 8 8 8 8 8 8 8 8 8 8 8 8 7 8 8 7 7 8 8 8 9 8 8 9 7 11
16 14 14 12 11 10 8 8 7 7 8 8 7 7 7 7 7 7 7 7 7 7 7 7 7 7 7 7 7 7 6 6 5 5 4 4 6 9 9 9 10 10 10
15 14 13 13 11 10 8 8 7 7 7 7 7 7 6 6 6 6 6 6 6 6 6 6 6 6 6 6 6 6 5 5 4 3 2 2 5 9 10 10 10 9 9
14 14 14 13 12 10 9 8 8 7 7 7 6 6 6 6 5 5 5 5 5 5 5 5 5 5 5 5 5 5 4 4 3 3 2 3 5 9 10 10 9 9 8
13 15 15 13 12 10 9 8 8 7 7 7 6 7 6 6 5 5 5 4 4 4 5 5 5 4 4 4 4 4 3 3 3 3 3 5 6 10 11 10 9 8 7
13 14 14 13 12 11 10 8 8 7 7 7 6 7 6 5 5 4 4 4 4 4 4 4 4 4 4 4 3 3 3 4 4 3 4 5 7 12 11 10 9 8 7
13 13 13 13 13 12 10 9 8 7 7 7 6 6 6 6 5 5 5 4 4 4 4 3 4 4 3 3 3 3 4 6 5 3 4 6 9 11 11 10 8 8 7
13 13 11 11 11 11 11 10 9 8 7 7 6 6 6 6 6 5 5 4 4 4 4 4 4 4 4 4 4 4 5 6 5 3 4 6 10 11 10 9 9 8 7
11 11 10 10 9 9 9 10 10 9 8 7 7 7 6 6 7 7 6 6 5 5 4 4 4 5 5 5 6 7 7 7 5 3 3 6 12 12 11 9 9 8 8
9 9 9 9 7 7 8 9 9 9 8 7 6 7 6 5 5 6 6 7 7 7 6 6 6 6 6 7 9 9 8 4 4 2 3 9 12 12 11 10 9 9 8
8 8 8 8 7 6 6 6 5 5 6 6 5 6 5 4 3 4 7 9 8 8 7 8 8 7 7 5 8 10 5 5 4 2 5 12 11 11 10 9 9 8 8
7 6 7 7 6 5 5 4 3 3 4 5 5 5 3 3 3 2 3 5 5 6 5 6 7 5 5 4 3 5 5 3 2 2 6 12 12 12 10 9 9 8 8
7 6 6 6 5 4 4 3 3 2 3 3 3 4 3 2 2 2 2 3 4 3 4 4 4 5 5 4 4 4 3 2 2 2 5 13 13 12 11 10 9 9 8
6 5 5 5 5 3 3 2 3 2 3 3 3 3 2 2 1 1 1 2 3 2 3 3 3 3 2 2 3 3 2 2 2 2 4 12 13 12 12 11 10 10 9
5 5 4 5 5 4 3 1 1 1 1 2 3 3 3 2 1 1 2 2 2 1 2 2 2 1 1 1 2 2 2 3 2 2 3 7 11 12 12 11 10 9 9
6 5 4 5 6 4 3 2 2 1 2 2 2 3 3 3 2 2 2 2 2 2 2 1 1 1 2 2 2 3 2 2 1 1 2 3 6 10 11 10 9 9 9
6 5 4 4 5 4 2 2 1 1 1 1 2 3 3 3 3 2 2 2 2 2 1 1 1 1 2 2 2 3 2 2 3 2 2 2 3 5 8 11 10 9 9
7 6 4 3 5 4 3 2 2 1 1 1 2 2 3 3 3 2 2 1 2 2 2 2 2 2 2 2 3 3 3 3 2 3 2 3 3 3 5 8 11 11 11
7 6 5 4 4 4 3 2 2 2 2 2 2 2 3 2 3 2 2 2 2 2 2 1 1 1 2 2 4 3 2 3 2 3 3 3 3 4 4 6 6 8 11
8 7 5 5 4 4 3 3 3 2 2 2 2 3 3 3 2 2 2 1 2 1 2 2 2 2 2 2 2 3 3 4 4 3 3 3 3 3 3 4 5 4 5
8 7 6 5 5 5 4 3 3 3 2 2 2 3 4 3 3 3 2 2 2 2 2 2 2 2 3 2 1 2 2 2 2 4 3 4 3 3 3 5 5 4 4
8 8 6 6 5 5 4 3 2 2 2 2 2 2 3 3 3 2 2 2 2 2 2 3 3 3 2 2 2 2 1 1 1 2 4 3 3 2 3 3 5 5 5
7 7 6 6 5 4 4 4 4 4 3 3 2 2 3 3 3 3 3 3 2 2 2 3 3 2 2 2 2 2 2 1 1 2 2 3 3 3 4 4 4 4 5
6 6 6 6 5 4 4 4 4 3 2 1 1 1 2 2 2 3 3 2 2 2 3 3 2 3 2 3 2 2 3 2 3 2 2 2 2 3 4 3 2 3 4
5 5 5 5 5 4 4 4 3 3 2 2 2 2 1 1 2 3 3 2 3 3 3 3 2 3 3 3 3 2 2 2 2 2 3 3 3 3 3 3 3 3 4
Wind_Direction
112 118 120 117 118 118 119 118 117 117 115 112 109 106 101 101 103 102 100 101 102 103 103 101 97 95 91 91 97 103 106 109 114 114 109 108 112 114 113 116 117 109 109
114 119 119 117 117 119 120 121 120 121 121 121 117 114 111 110 112 109 107 106 107 108 108 105 102 100 98 97 100 107 115 120 117 121 120 119 119 118 114 108 102 105 110
115 121 121 118 118 119 122 121 122 125 127 128 127 121 118 118 118 115 113 113 112 111 110 111 110 108 108 109 111 110 116 125 126 131 136 132 124 120 115 109 109 112 114
122 126 124 122 120 121 122 123 126 130 133 134 135 131 128 127 124 120 120 120 118 116 115 114 115 116 114 115 121 124 128 137 146 149 173 137 127 124 120 117 117 118 119
126 124 123 127 124 123 124 126 127 130 134 134 136 137 134 132 127 121 124 127 127 125 121 118 116 119 124 127 131 136 149 161 175 203 147 109 110 128 129 125 122 122 121
123 121 127 129 128 127 127 127 127 133 135 136 136 139 139 137 132 129 127 129 130 129 125 120 121 125 129 135 142 151 169 194 216 215 156 136 132 142 139 134 131 127 128
122 123 129 130 130 130 129 131 131 136 141 142 143 145 144 145 143 142 142 138 134 127 123 123 129 132 137 143 156 178 208 231 240 220 156 142 141 146 143 142 140 136 138
119 119 129 134 136 138 137 134 134 136 143 147 148 149 152 155 158 158 151 143 140 141 139 138 144 150 159 172 191 213 232 253 241 210 151 131 141 149 148 146 148 146 144
121 124 138 141 145 148 145 143 144 146 148 153 155 157 161 165 168 165 162 159 155 156 160 168 172 179 188 198 216 240 250 257 271 243 163 142 151 154 154 154 153 155 156
128 132 143 145 148 153 150 150 152 155 158 159 164 169 171 177 183 182 178 174 176 179 180 185 193 200 204 212 223 235 247 261 247 229 145 147 156 158 161 166 168 167 167
129 132 141 139 143 150 147 148 155 160 167 169 174 180 182 192 189 189 185 170 183 191 197 202 207 211 212 220 226 232 240 245 233 180 143 147 154 160 164 170 177 179 178
137 142 140 140 144 148 142 142 159 170 165 184 173 181 197 200 198 188 169 179 191 196 205 213 219 218 220 220 220 222 230 231 240 171 150 152 155 160 167 175 182 186 188
144 146 134 135 138 142 134 152 169 173 163 187 170 182 200 208 192 172 163 174 190 199 206 210 217 220 219 218 205 204 216 226 221 176 154 156 159 163 172 179 184 188 193
146 143 130 132 133 134 138 157 169 172 171 172 165 180 190 212 201 182 182 178 193 197 203 205 216 220 225 219 218 219 215 205 198 172 162 160 160 165 172 179 186 190 192
137 134 124 123 119 120 123 162 161 173 168 153 160 181 190 201 211 190 209 206 214 193 193 216 221 221 235 244 255 240 223 231 222 180 157 164 164 168 174 183 191 195 197
131 130 122 126 122 128 133 144 136 167 153 165 161 173 197 216 200 206 212 229 241 211 195 216 230 237 245 256 278 288 268 254 210 157 168 169 171 173 178 185 192 199 204
136 132 133 141 129 137 145 175 173 183 184 178 151 168 192 221 200 206 219 222 233 227 202 189 228 257 251 244 252 258 258 254 253 164 184 175 176 183 186 189 193 199 207
139 138 151 154 144 147 156 182 215 212 195 175 160 168 195 216 207 216 222 226 218 218 191 181 207 241 256 263 251 248 248 228 228 218 210 200 182 184 191 196 197 200 204
142 144 156 160 153 157 173 185 227 198 198 195 174 161 189 212 210 226 234 203 213 205 194 228 195 217 244 260 256 242 242 241 218 236 221 218 198 190 181 194 201 202 202
146 150 157 171 157 161 170 179 215 200 199 209 187 162 173 209 210 231 236 194 223 200 194 223 229 233 243 246 270 261 245 242 227 233 225 221 199 209 192 186 193 202 204
153 157 168 177 166 169 176 186 195 205 207 208 193 171 179 199 204 220 251 199 221 201 189 198 206 234 238 231 262 270 256 235 225 228 220 227 215 210 197 189 193 194 196
161 167 177 176 172 183 185 190 198 196 206 202 200 177 176 187 205 218 215 223 221 198 200 202 206 236 242 215 231 264 262 249 243 234 217 218 215 196 204 211 198 191 194
171 175 177 175 177 186 186 185 193 180 201 206 190 184 188 194 199 222 207 238 238 222 204 203 212 224 240 232 216 221 243 257 279 243 227 219 199 199 211 207 198 194 198
176 172 167 166 173 179 183 192 197 203 206 205 190 189 191 194 204 212 203 216 232 241 218 220 206 228 238 250 238 234 239 226 243 266 256 226 206 216 221 226 212 193 194
174 168 161 159 168 177 188 197 198 212 208 199 181 200 194 201 206 210 198 203 217 236 225 228 218 215 222 238 250 239 246 245 231 244 262 259 245 226 214 209 221 206 204
169 166 156 156 166 175 185 194 199 203 199 195 200 202 217 208 204 204 199 198 215 229 227 228 223 224 230 238 250 255 238 237 237 240 256 256 248 244 221 204 207 206 209